This is the latest recevied weather packets stored in our database for station/object WA0LM. If no packets are shown the sender has not sent any weather packets the latest 1 day(s).
| Time | Temp. | Humidity | Pressure | Rain* | Wind** | Luminosity | Snow |
|---|---|---|---|---|---|---|---|
| 1778076673 | 2.22° C | 65% | 1015.3 hPa | 0 mm | - | 112 W/m² | - |
| 1778076370 | 2.22° C | 63% | 1015.4 hPa | 0 mm | - | 108 W/m² | - |
| 1778075764 | 2.22° C | 62% | 1015.1 hPa | 0 mm | - | 110 W/m² | - |
| 1778075460 | 2.22° C | 66% | 1015.1 hPa | 0 mm | - | 100 W/m² | - |
| 1778074550 | 2.22° C | 66% | 1015.1 hPa | 0 mm | - | 98 W/m² | - |
| 1778074247 | 2.22° C | 70% | 1015 hPa | 0 mm | - | 83 W/m² | - |
| 1778070918 | 1.67° C | 70% | 1014.8 hPa | 0 mm | - | 24 W/m² | - |
| 1778070616 | 1.67° C | 70% | 1014.7 hPa | 0 mm | - | 22 W/m² | - |
| 1778069404 | 1.67° C | 68% | 1014.2 hPa | 0 mm | - | 17 W/m² | - |
| 1778068496 | 1.67° C | 68% | 1014.1 hPa | 0 mm | - | 13 W/m² | - |
| 1778067288 | 1.67° C | 67% | 1014.1 hPa | 0 mm | - | 7 W/m² | - |
| 1778066984 | 1.67° C | 67% | 1013.9 hPa | 0 mm | - | 6 W/m² | - |
| 1778066682 | 1.67° C | 66% | 1013.8 hPa | 0 mm | - | 5 W/m² | - |
| 1778066077 | 1.67° C | 67% | 1013.8 hPa | 0 mm | - | 3 W/m² | - |
| 1778064864 | 1.67° C | 67% | 1013.6 hPa | 0 mm | - | 1 W/m² | - |
| 1778062140 | 1.67° C | 70% | 1013.6 hPa | 0 mm | - | 0 W/m² | - |
| 1778061536 | 1.67° C | 65% | 1013.3 hPa | 0 mm | - | 0 W/m² | - |
| 1778061234 | 1.67° C | 68% | 1013.4 hPa | 0 mm | - | 0 W/m² | - |
| 1778060930 | 1.67° C | 67% | 1013.4 hPa | 0 mm | - | 0 W/m² | - |
| 1778060629 | 1.67° C | 66% | 1013.4 hPa | 0 mm | - | 0 W/m² | - |
| 1778060024 | 1.67° C | 66% | 1013.4 hPa | 0 mm | - | 0 W/m² | - |
| 1778058511 | 2.22° C | 65% | 1013.3 hPa | 0 mm | - | 0 W/m² | - |
| 1778058208 | 1.67° C | 67% | 1013.2 hPa | 0 mm | - | 0 W/m² | - |
| 1778057601 | 1.67° C | 66% | 1013.2 hPa | 0 mm | - | 0 W/m² | - |
| 1778056994 | 1.67° C | 65% | 1013.2 hPa | 0 mm | - | 0 W/m² | - |
* Rain latest hour (hover to see other rain measurements)
** Current wind speed in m/s (hover to see current wind gust speed)